Location: Unspecified
(0.0000°N, 0.0000°E)
Time: 01:09:07
(UTC+00:00)

OAO 2 - Visible Passes

Search period start: 27 February 2021 00:00
Search period end: 09 March 2021 00:00
Orbit: 735 x 743 km, 35.0° (Epoch: 26 February)

Date Brightness Start Highest point End Pass type
(mag) Time Alt. Az. Time Alt. Az. Time Alt. Az.
27 Feb 6.7 04:28:20 20° N 04:30:18 24° NE 04:34:33 10° E visible
27 Feb 6.7 18:39:28 10° W 18:43:50 26° NW 18:48:13 10° NNE visible
28 Feb 7.4 03:42:27 15° NE 03:42:27 15° NE 03:44:25 10° ENE visible
28 Feb 4.9 05:22:02 14° NW 05:26:33 81° SW 05:31:49 10° SE visible
01 Mar 5.1 04:36:10 49° NNW 04:37:25 68° NE 04:42:39 10° ESE visible
02 Mar 6.6 03:50:17 30° E 03:50:17 30° E 03:53:18 10° ESE visible
02 Mar 6.0 05:29:52 13° W 05:33:39 29° SW 05:38:11 10° SSE visible
03 Mar 5.3 04:43:58 41° SW 04:44:29 43° SW 04:49:29 10° SE visible
04 Mar 6.5 03:58:01 29° SE 03:58:01 29° SE 04:00:35 10° SE visible
04 Mar 7.0 05:39:36 10° SW 05:40:57 11° SSW 05:42:17 10° SSW visible
05 Mar 6.7 04:51:36 16° SW 04:51:41 16° SW 04:54:57 10° S visible
06 Mar 7.2 04:05:32 15° S 04:05:32 15° S 04:06:40 10° SSE visible
